SCP
0 0 -0 -0 -0 -0 -0 -0 -0 -0 -0 -0 -0 0 0 -0 -0 0 -0 -0 -0 -0 0 0 0 0 0 0 -0 0 0 0 0 0 -0 -0 -0 -0 -0 -0 -0 -0 0 -0 0 0 -0
0 0 0 0 0 -0 -0 -0 -0 -0 -0 -0 -0 -0 -0 0 0 0 0 -0 -0 0 0 0 0 0 0 0 0 -0 -0 -0 0 -0 -0 -0 -0 -0 -0 -0 -0 -0 0 -0 -0 -0 -0
0 0 0 0 0 0 0 0 -0 -0 -0 -0 -0 -0 -0 -0 0 0 0 0 -0 0 0 0 0 0 0 -0 0 0 0 0 -0 -0 -0 0 0 -0 0 -0 -0 0 0 0 -0 -0 -0
0 0 0 0 0 0 0 0 0 0 0 -0 -0 -0 -0 -0 -0 -0 0 0 0 0 0 0 0 0 0 0 0 0 0 0 0 -0 -0 0 0 0 0 -0 0 0 -0 -0 -0 -0 -0
0 0 0 0 0 0 0 0 0 0 0 0 -0 -0 -0 -0 -0 -0 -0 -0 0 0 0 0 0 0 0 0 0 0 0 0 0 -0 0 0 0 0 0 0 -0 -0 -0 -0 -0 0 0
0 0 0 0 0 0 0 0 0 0 0 0 0 0 -0 -0 -0 -0 -0 -0 0 0 0 0 0 0 0 0 0 0 -0 -0 0 0 0 0 0 0 0 0 0 -0 -0 -0 -0 0 0
0 0 0 0 0 0 0 0 0 0 0 0 0 0 0 -0 -0 -0 0 0 0 0 0 0 0 0 0 -0 0 0 0 -0 0 0 0 0 -0 -0 -0 -0 -0 -0 0 0 -0 0 0
0 0 0 0 0 0 0 0 0 0 0 0 0 0 0 -0 -0 -0 0 0 0 0 0 -0 -0 -0 0 0 0 0 0 0 0 0 0 -0 0 -0 -0 0 -0 0 0 0 0 0 0
0 0 0 0 0 0 0 0 0 0 0 0 0 0 0 0 -0 0 0 0 0 0 0 0 0 0 -0 0 0 0 0 -0 0 0 0 -0 -0 0 0 0 0 0 0 0 0 0 0
0 0 0 0 0 0 0 0 0 0 0 0 0 0 0 -0 0 0 0 0 0 0 0 0 0 0 0 0 0 -0 0 0 0 -0 0 -0 -0 0 0 0 0 0 -0 0 0 0 0
0 0 0 0 0 0 0 0 0 0 0 0 0 0 0 0 0 0 0 0 0 0 0 0 0 0 0 0 0 0 -0 0 0 -0 0 0 0 -0 0 0 0 0 0 0 0 0 0
0 0 0 0 0 0 0 0 0 0 0 0 -0 0 0 0 0 0 0 0 0 0 0 0 0 0 0 0 -0 0 0 0 -0 -0 -0 -0 -0 0 -0 0 0 -0 0 0 0 0 0
0 0 0 0 0 0 0 0 0 0 0 -0 -0 -0 0 0 0 0 0 0 0 0 0 0 0 0 -0 0 0 -0 0 0 0 0 0 0 -0 -0 0 0 0 0 0 0 0 0 0
0 0 0 0 0 0 0 0 0 0 0 0 0 -0 0 0 0 0 0 0 0 0 0 0 0 0 0 0 0 0 0 0 0 0 0 0 0 -0 0 0 0 0 0 0 0 -0 0
0 0 0 0 0 0 0 0 0 0 0 0 0 0 0 0 0 0 0 0 0 0 0 0 0 0 0 0 0 0 0 0 0 0 0 0 0 0 0 0 -0 0 0 0 -0 0 0
0 0 0 0 0 0 0 0 0 0 0 0 0 0 0 -0 0 0 0 0 0 0 0 0 0 0 0 0 0 0 0 0 0 0 0 -0 0 0 0 0 0 -0 0 0 0 0 0
0 0 0 0 0 0 0 0 0 0 0 0 0 0 0 0 0 0 0 0 0 0 0 0 0 0 0 0 0 0 0 0 0 0 0 0 0 0 0 0 0 0 -0 -0 0 0 0
0 0 0 0 0 0 0 0 0 0 0 0 0 0 0 0 0 0 0 0 0 0 0 0 0 0 0 0 0 0 0 0 0 0 0 0 0 0 0 0 0 0 0 -0 0 0 0
0 0 0 0 0 0 0 0 0 0 0 0 0 0 0 0 0 0 0 0 0 0 0 0 0 0 0 0 0 0 0 0 0 0 0 0 0 0 0 0 0 0 -0 0 0 0 0
0 0 0 0 0 0 0 0 0 0 0 0 0 0 0 0 0 0 0 0 0 0 0 0 0 0 0 0 0 0 0 0 0 0 0 0 0 0 0 0 0 0 0 0 0 0 0
0 0 0 0 0 0 0 0 0 0 0 0 0 0 0 0 -0 0 0 0 0 0 0 0 0 0 0 0 0 0 0 0 0 0 0 0 0 0 0 0 0 0 0 0 0 0 0
0 0 0 0 0 0 0 0 0 0 0 0 0 0 0 0 0 0 0 0 0 0 0 0 0 0 0 0 0 0 0 0 0 0 0 0 0 0 0 0 0 0 0 0 0 0 0
0 0 0 0 0 0 0 0 0 0 0 0 0 0 0 0 0 0 0 0 0 0 0 0 0 0 0 0 0 0 0 0 0 0 0 1 0 0 0 0 0 0 0 0 0 0 0
0 0 0 0 0 0 0 0 0 0 0 0 0 0 0 0 0 0 0 0 0 0 0 0 0 0 0 0 0 0 0 0 0 0 0 0 1 0 0 0 0 0 0 0 0 0 0
0 0 0 0 0 0 0 0 0 0 0 0 0 0 0 0 0 0 0 0 0 0 0 0 0 0 0 0 0 0 0 0 0 0 0 0 1 0 0 0 0 0 0 0 0 0 0
0 0 0 0 0 0 0 0 0 0 0 0 0 0 0 0 0 0 0 0 0 0 0 0 0 0 0 0 0 0 0 0 0 0 0 0 0 1 0 0 0 0 0 0 0 0 0
0 0 0 0 0 0 0 0 0 0 0 0 0 0 0 0 0 0 0 0 0 0 0 0 0 0 0 0 0 0 0 0 0 0 1 0 0 0 1 0 1 0 0 0 0 0 1
0 0 0 0 0 0 0 0 0 0 0 0 0 0 0 0 0 0 0 0 0 0 0 0 0 -0 0 0 0 0 0 0 0 0 1 1 0 0 0 0 0 0 0 0 0 0 0
0 0 0 0 0 0 0 0 0 0 0 0 0 0 0 0 0 0 -0 0 0 0 0 0 0 0 1 1 0 0 0 0 0 0 0 1 0 0 0 0 0 0 1 0 0 0 0
Wind_Speed_500mb
25 25 26 26 28 29 30 31 32 32 32 30 30 31 31 32 33 32 31 30 28 26 23 22 20 17 15 17 38 23 11 13 24 34 34 29 32 33 33 41 46 38 44 49 39 23 20
24 26 28 29 30 30 31 33 34 34 35 35 34 33 33 34 34 33 32 31 28 25 22 20 18 17 17 31 10 8 10 14 24 34 31 33 29 32 38 44 39 38 43 40 55 29 26
26 28 31 32 32 32 33 33 34 36 37 37 38 37 36 35 35 34 33 31 27 24 20 17 16 16 22 42 8 13 20 20 28 32 29 29 31 34 25 31 37 34 27 27 45 27 37
26 27 28 30 32 34 35 35 35 35 37 37 39 39 38 38 36 35 32 30 25 20 17 14 13 14 22 21 31 26 23 25 29 28 29 24 29 26 36 38 27 26 27 31 33 38 40
30 31 30 30 30 30 32 34 35 36 38 38 38 38 39 38 37 35 30 27 20 16 13 11 10 13 29 17 27 29 30 31 29 28 26 22 22 32 34 28 27 28 27 38 40 43 23
28 29 30 31 32 33 33 34 35 36 37 38 40 39 38 37 35 34 26 22 16 15 10 11 19 17 41 33 29 38 34 32 29 28 28 24 20 26 29 28 25 33 36 27 30 26 23
26 28 29 30 32 35 35 35 36 37 38 38 39 39 38 36 32 27 17 15 11 1 23 32 21 29 2 27 21 35 40 36 32 33 31 36 24 30 36 35 39 42 29 24 29 24 24
24 28 31 33 34 35 37 38 38 37 38 40 40 39 37 34 26 13 15 19 10 17 28 42 59 51 39 19 22 31 42 43 40 34 38 31 34 37 37 35 33 34 23 32 29 12 16
30 30 30 34 37 39 39 39 41 41 39 39 40 40 37 30 13 14 17 14 17 26 20 38 61 65 55 36 37 38 50 54 39 39 39 38 39 43 37 35 19 22 25 30 32 26 19
32 33 35 38 40 39 41 42 41 41 43 41 39 40 38 25 7 11 11 11 18 21 12 19 31 50 58 48 45 41 53 56 37 41 42 39 47 34 29 33 19 29 31 31 32 30 25
35 37 38 40 43 43 40 40 42 42 40 40 40 38 31 32 21 11 14 25 21 12 11 18 23 9 44 62 9 56 51 57 48 41 28 41 45 40 28 30 25 33 29 26 33 31 29
38 37 39 42 42 41 42 44 43 42 42 41 36 36 35 18 28 19 26 27 15 12 18 15 20 19 37 56 59 31 57 58 56 47 41 42 51 35 39 31 32 30 21 27 17 22 25
36 38 40 41 41 41 42 43 44 45 46 44 40 33 35 30 11 9 17 12 11 17 13 17 25 24 36 38 46 45 43 48 42 39 44 41 44 39 27 24 31 30 20 17 21 21 26
39 40 42 44 42 40 41 42 41 41 42 44 44 37 34 36 19 12 15 14 22 22 43 21 8 20 34 37 42 48 42 44 49 49 30 37 36 45 28 36 34 34 29 22 23 23 17
39 41 44 42 40 40 40 40 39 41 41 42 40 33 32 27 19 19 21 24 17 31 31 28 19 29 31 36 32 48 43 44 47 50 44 34 44 33 49 29 40 35 30 38 35 35 26
32 30 32 34 38 39 38 37 39 40 35 34 41 32 34 27 29 26 23 42 33 49 50 29 28 27 34 37 42 38 49 44 46 50 50 42 37 34 36 47 39 39 32 27 20 23 28
34 34 34 34 28 28 28 32 34 36 29 22 22 16 5 29 21 30 26 36 44 69 72 43 30 37 43 43 38 43 43 49 46 50 47 44 34 32 33 29 37 26 33 30 20 20 20
38 34 35 33 28 28 26 29 30 32 22 9 21 12 19 21 22 27 31 42 52 56 61 44 40 40 42 46 48 41 47 44 55 51 49 42 19 25 43 39 39 38 38 37 19 26 19
42 38 33 32 28 25 24 24 27 29 22 17 14 32 23 21 16 25 41 48 58 51 49 54 46 38 38 43 42 39 43 41 46 36 40 31 27 22 34 30 25 30 43 28 22 19 22
40 37 34 33 29 25 23 21 21 25 17 9 14 9 26 36 42 38 40 42 45 61 57 66 51 47 42 44 42 42 44 37 41 35 33 25 20 29 23 34 29 37 37 35 29 22 27
34 35 36 40 28 22 23 24 21 15 11 10 14 14 24 11 26 23 30 35 46 45 52 57 48 52 42 41 46 46 42 43 41 13 9 8 22 30 39 46 37 33 40 40 39 28 23
33 45 39 27 27 25 22 22 22 14 10 12 15 19 24 35 40 36 28 35 43 50 54 44 49 44 45 43 44 42 43 40 29 26 27 20 20 27 38 42 43 42 37 45 40 39 38
27 22 26 26 27 26 24 22 22 17 10 10 15 33 22 22 29 25 29 38 37 45 62 65 54 43 50 52 57 55 63 45 43 7 25 29 25 28 38 42 41 42 42 31 29 37 32
26 28 27 27 30 28 26 26 22 19 21 21 23 21 26 23 25 27 32 36 37 45 45 83 81 42 60 58 60 61 73 52 51 24 44 32 31 24 26 34 47 32 36 35 34 25 23
28 26 27 27 26 28 27 24 24 23 24 22 15 19 33 22 38 31 35 30 40 42 49 71 74 57 11 24 21 29 28 34 45 48 30 38 29 24 26 32 35 36 10 25 31 34 23
28 28 27 22 22 24 26 22 21 22 23 21 20 23 22 27 27 23 29 32 24 17 37 73 59 60 45 17 23 34 30 32 38 47 21 10 13 25 29 36 37 9 10 39 4 20 18
27 28 25 24 24 24 26 23 22 24 25 22 24 25 30 34 54 46 27 21 20 16 20 42 29 47 72 21 26 27 32 40 36 49 26 20 5 42 30 20 1 12 14 30 14 1 25
28 26 26 27 27 24 25 29 27 28 27 27 25 27 29 32 52 51 46 45 44 33 9 40 24 35 35 20 26 24 26 33 39 40 34 14 4 26 27 20 15 19 21 22 11 18 29
25 26 28 26 25 26 22 24 31 29 26 27 28 25 28 37 42 50 44 52 54 39 30 15 24 59 23 4 19 11 14 9 12 30 26 23 22 25 16 17 63 51 25 35 34 32 26
Wind_Direction_500mb
346 347 344 343 345 344 342 341 340 339 339 337 335 334 331 328 325 322 317 311 308 303 298 292 281 265 268 257 262 247 288 237 212 196 204 225 229 236 246 244 250 246 264 265 274 282 272
345 346 343 343 341 339 337 336 335 335 334 333 331 330 328 327 324 322 317 312 305 299 293 284 272 256 253 258 204 259 250 222 198 189 209 227 233 237 252 251 265 249 244 267 268 269 247
340 340 339 339 337 336 334 333 332 331 330 329 328 327 326 324 323 321 318 313 305 296 288 274 261 249 252 236 232 226 212 212 193 199 219 229 241 259 253 275 269 267 271 278 251 259 259
333 332 333 333 334 334 333 333 332 331 329 328 326 326 325 323 322 321 318 313 304 293 283 263 247 239 256 221 253 248 211 208 205 212 223 248 239 266 261 271 274 262 255 259 245 230 251
331 333 334 332 331 331 331 332 333 332 331 330 328 327 325 323 322 321 319 312 303 290 274 244 225 227 255 244 220 211 206 205 205 213 224 245 235 241 254 251 261 234 243 236 257 200 221
326 328 331 332 332 331 330 330 330 330 330 330 330 331 329 325 324 323 323 312 297 271 276 232 223 252 252 224 221 211 205 206 206 212 219 224 233 238 239 241 238 234 217 252 251 169 192
324 326 328 329 329 328 327 326 326 327 328 329 330 333 334 330 328 329 343 327 305 250 224 226 211 217 85 216 191 202 201 204 201 210 215 206 221 226 233 231 250 271 303 268 250 180 178
327 329 329 330 330 329 328 327 327 326 325 325 327 331 336 335 333 344 351 332 18 320 293 254 251 244 249 220 209 214 197 201 200 210 213 227 225 239 242 249 245 258 279 283 294 192 165
316 321 324 326 327 326 325 324 324 325 325 325 325 328 334 341 348 13 323 308 331 328 275 274 234 229 226 217 224 208 202 205 207 216 215 227 227 217 246 250 237 267 266 261 275 281 172
306 309 315 320 320 320 320 320 321 322 322 323 325 326 333 348 354 310 351 336 325 324 279 251 203 220 215 210 229 222 206 208 222 221 226 232 242 259 210 243 233 241 245 256 268 264 265
297 302 308 313 315 316 315 315 316 317 317 318 320 321 329 332 316 282 321 323 312 304 281 102 175 192 202 201 197 208 209 209 223 220 221 230 232 239 209 248 228 256 260 284 232 262 271
294 295 302 309 311 312 311 312 311 311 311 313 313 314 311 315 313 299 308 307 308 235 237 166 154 199 203 198 220 215 207 208 226 239 239 244 245 223 246 218 242 249 242 264 286 255 251
289 290 297 302 304 306 307 308 309 311 309 308 304 304 297 292 200 242 308 304 238 235 239 191 189 205 215 200 212 237 193 202 213 220 235 234 240 248 215 239 228 227 224 241 233 233 242
292 292 295 299 303 305 306 307 309 309 309 308 301 298 289 277 260 297 293 243 241 261 233 306 257 223 208 214 207 224 199 215 210 225 228 229 226 234 181 226 232 211 225 238 235 223 253
291 292 291 293 296 301 304 305 309 312 315 315 309 303 277 270 260 229 230 224 229 232 287 303 242 248 230 221 213 216 219 210 219 219 227 238 232 224 223 201 235 197 218 245 267 286 288
305 302 307 300 296 302 307 307 309 310 321 323 322 319 279 218 208 205 226 235 248 248 283 302 280 274 243 229 220 211 222 217 228 219 223 246 264 248 221 203 220 250 214 221 238 259 275
293 302 312 315 308 302 304 307 308 308 324 326 328 287 173 160 183 214 234 237 246 259 274 276 255 270 275 282 231 226 227 225 211 225 219 230 253 259 218 197 211 216 243 254 237 236 237
286 286 298 306 302 301 307 311 317 321 325 351 289 258 162 187 219 234 240 250 257 269 270 254 268 254 277 289 291 267 223 238 223 210 227 212 237 238 257 213 212 236 218 232 242 239 260
279 277 286 296 295 295 300 304 316 330 346 340 267 257 247 200 246 248 256 258 249 254 253 263 246 243 261 273 281 280 278 232 237 207 217 207 219 229 256 261 213 219 245 223 232 267 270
266 270 280 289 286 287 292 289 305 318 337 338 287 272 221 214 249 268 280 281 273 254 245 255 257 251 239 254 259 268 273 270 253 202 223 240 209 217 238 243 209 213 229 239 220 212 230
264 269 274 281 270 269 284 284 298 314 326 341 241 253 278 279 224 244 254 262 273 267 258 244 250 250 245 242 253 249 250 261 253 163 179 180 225 214 226 255 268 208 222 229 235 235 248
271 273 275 264 260 266 271 266 279 295 295 273 288 332 308 294 287 281 275 271 267 262 271 251 245 245 252 247 236 248 242 249 270 182 195 214 227 227 236 236 248 260 235 212 222 230 222
264 260 267 263 258 265 265 261 266 265 256 250 279 289 276 274 273 271 263 264 279 313 270 273 276 228 245 247 244 252 257 274 302 181 245 204 200 212 233 237 252 249 248 243 220 224 221
254 257 265 264 251 258 263 256 255 256 236 260 291 311 277 276 266 264 280 282 312 299 290 293 280 298 234 248 244 241 254 264 269 231 233 208 204 209 225 224 236 244 240 231 250 243 222
255 261 257 271 253 250 254 247 254 247 237 246 260 265 282 278 275 281 280 280 294 307 303 291 285 260 218 265 236 232 241 240 244 257 214 201 215 212 226 233 241 237 247 287 233 233 163
248 255 257 261 255 251 247 240 249 241 240 240 252 254 260 276 266 266 317 279 296 344 312 300 252 282 299 240 218 220 220 219 227 239 203 229 341 208 209 238 238 182 348 330 257 212 149
249 247 256 255 254 258 240 237 235 241 241 245 257 246 246 261 264 278 272 312 296 295 290 283 334 268 265 224 232 212 229 222 224 223 179 176 228 247 219 229 232 92 9 18 236 207 44
248 250 252 253 252 258 247 237 243 245 249 252 256 260 248 266 270 273 273 278 286 283 300 313 319 212 235 219 226 234 227 219 236 230 210 173 36 226 222 213 213 173 120 155 219 95 95
254 251 250 251 255 247 252 251 244 245 247 253 258 267 264 251 265 286 275 264 261 268 302 310 293 296 325 302 233 286 268 243 242 218 222 180 166 233 289 244 145 174 169 123 146 139 139
Wind_Speed_850mb
25 25 26 26 28 29 30 31 32 32 32 30 30 31 31 32 33 32 31 30 28 26 23 22 20 17 15 17 38 23 11 13 24 34 34 29 32 33 33 41 46 38 44 49 39 23 20
24 26 28 29 30 30 31 33 34 34 35 35 34 33 33 34 34 33 32 31 28 25 22 20 18 17 17 31 10 8 10 14 24 34 31 33 29 32 38 44 39 38 43 40 55 29 26
26 28 31 32 32 32 33 33 34 36 37 37 38 37 36 35 35 34 33 31 27 24 20 17 16 16 22 42 8 13 20 20 28 32 29 29 31 34 25 31 37 34 27 27 45 27 37
26 27 28 30 32 34 35 35 35 35 37 37 39 39 38 38 36 35 32 30 25 20 17 14 13 14 22 21 31 26 23 25 29 28 29 24 29 26 36 38 27 26 27 31 33 38 40
30 31 30 30 30 30 32 34 35 36 38 38 38 38 39 38 37 35 30 27 20 16 13 11 10 13 29 17 27 29 30 31 29 28 26 22 22 32 34 28 27 28 27 38 40 43 23
28 29 30 31 32 33 33 34 35 36 37 38 40 39 38 37 35 34 26 22 16 15 10 11 19 17 41 33 29 38 34 32 29 28 28 24 20 26 29 28 25 33 36 27 30 26 23
26 28 29 30 32 35 35 35 36 37 38 38 39 39 38 36 32 27 17 15 11 1 23 32 21 29 2 27 21 35 40 36 32 33 31 36 24 30 36 35 39 42 29 24 29 24 24
24 28 31 33 34 35 37 38 38 37 38 40 40 39 37 34 26 13 15 19 10 17 28 42 59 51 39 19 22 31 42 43 40 34 38 31 34 37 37 35 33 34 23 32 29 12 16
30 30 30 34 37 39 39 39 41 41 39 39 40 40 37 30 13 14 17 14 17 26 20 38 61 65 55 36 37 38 50 54 39 39 39 38 39 43 37 35 19 22 25 30 32 26 19
32 33 35 38 40 39 41 42 41 41 43 41 39 40 38 25 7 11 11 11 18 21 12 19 31 50 58 48 45 41 53 56 37 41 42 39 47 34 29 33 19 29 31 31 32 30 25
35 37 38 40 43 43 40 40 42 42 40 40 40 38 31 32 21 11 14 25 21 12 11 18 23 9 44 62 9 56 51 57 48 41 28 41 45 40 28 30 25 33 29 26 33 31 29
38 37 39 42 42 41 42 44 43 42 42 41 36 36 35 18 28 19 26 27 15 12 18 15 20 19 37 56 59 31 57 58 56 47 41 42 51 35 39 31 32 30 21 27 17 22 25
36 38 40 41 41 41 42 43 44 45 46 44 40 33 35 30 11 9 17 12 11 17 13 17 25 24 36 38 46 45 43 48 42 39 44 41 44 39 27 24 31 30 20 17 21 21 26
39 40 42 44 42 40 41 42 41 41 42 44 44 37 34 36 19 12 15 14 22 22 43 21 8 20 34 37 42 48 42 44 49 49 30 37 36 45 28 36 34 34 29 22 23 23 17
39 41 44 42 40 40 40 40 39 41 41 42 40 33 32 27 19 19 21 24 17 31 31 28 19 29 31 36 32 48 43 44 47 50 44 34 44 33 49 29 40 35 30 38 35 35 26
32 30 32 34 38 39 38 37 39 40 35 34 41 32 34 27 29 26 23 42 33 49 50 29 28 27 34 37 42 38 49 44 46 50 50 42 37 34 36 47 39 39 32 27 20 23 28
34 34 34 34 28 28 28 32 34 36 29 22 22 16 5 29 21 30 26 36 44 69 72 43 30 37 43 43 38 43 43 49 46 50 47 44 34 32 33 29 37 26 33 30 20 20 20
38 34 35 33 28 28 26 29 30 32 22 9 21 12 19 21 22 27 31 42 52 56 61 44 40 40 42 46 48 41 47 44 55 51 49 42 19 25 43 39 39 38 38 37 19 26 19
42 38 33 32 28 25 24 24 27 29 22 17 14 32 23 21 16 25 41 48 58 51 49 54 46 38 38 43 42 39 43 41 46 36 40 31 27 22 34 30 25 30 43 28 22 19 22
40 37 34 33 29 25 23 21 21 25 17 9 14 9 26 36 42 38 40 42 45 61 57 66 51 47 42 44 42 42 44 37 41 35 33 25 20 29 23 34 29 37 37 35 29 22 27
34 35 36 40 28 22 23 24 21 15 11 10 14 14 24 11 26 23 30 35 46 45 52 57 48 52 42 41 46 46 42 43 41 13 9 8 22 30 39 46 37 33 40 40 39 28 23
33 45 39 27 27 25 22 22 22 14 10 12 15 19 24 35 40 36 28 35 43 50 54 44 49 44 45 43 44 42 43 40 29 26 27 20 20 27 38 42 43 42 37 45 40 39 38
27 22 26 26 27 26 24 22 22 17 10 10 15 33 22 22 29 25 29 38 37 45 62 65 54 43 50 52 57 55 63 45 43 7 25 29 25 28 38 42 41 42 42 31 29 37 32
26 28 27 27 30 28 26 26 22 19 21 21 23 21 26 23 25 27 32 36 37 45 45 83 81 42 60 58 60 61 73 52 51 24 44 32 31 24 26 34 47 32 36 35 34 25 23
28 26 27 27 26 28 27 24 24 23 24 22 15 19 33 22 38 31 35 30 40 42 49 71 74 57 11 24 21 29 28 34 45 48 30 38 29 24 26 32 35 36 10 25 31 34 23
28 28 27 22 22 24 26 22 21 22 23 21 20 23 22 27 27 23 29 32 24 17 37 73 59 60 45 17 23 34 30 32 38 47 21 10 13 25 29 36 37 9 10 39 4 20 18
27 28 25 24 24 24 26 23 22 24 25 22 24 25 30 34 54 46 27 21 20 16 20 42 29 47 72 21 26 27 32 40 36 49 26 20 5 42 30 20 1 12 14 30 14 1 25
28 26 26 27 27 24 25 29 27 28 27 27 25 27 29 32 52 51 46 45 44 33 9 40 24 35 35 20 26 24 26 33 39 40 34 14 4 26 27 20 15 19 21 22 11 18 29
25 26 28 26 25 26 22 24 31 29 26 27 28 25 28 37 42 50 44 52 54 39 30 15 24 59 23 4 19 11 14 9 12 30 26 23 22 25 16 17 63 51 25 35 34 32 26
Wind_Direction_850mb
346 347 344 343 345 344 342 341 340 339 339 337 335 334 331 328 325 322 317 311 308 303 298 292 281 265 268 257 262 247 288 237 212 196 204 225 229 236 246 244 250 246 264 265 274 282 272
345 346 343 343 341 339 337 336 335 335 334 333 331 330 328 327 324 322 317 312 305 299 293 284 272 256 253 258 204 259 250 222 198 189 209 227 233 237 252 251 265 249 244 267 268 269 247
340 340 339 339 337 336 334 333 332 331 330 329 328 327 326 324 323 321 318 313 305 296 288 274 261 249 252 236 232 226 212 212 193 199 219 229 241 259 253 275 269 267 271 278 251 259 259
333 332 333 333 334 334 333 333 332 331 329 328 326 326 325 323 322 321 318 313 304 293 283 263 247 239 256 221 253 248 211 208 205 212 223 248 239 266 261 271 274 262 255 259 245 230 251
331 333 334 332 331 331 331 332 333 332 331 330 328 327 325 323 322 321 319 312 303 290 274 244 225 227 255 244 220 211 206 205 205 213 224 245 235 241 254 251 261 234 243 236 257 200 221
326 328 331 332 332 331 330 330 330 330 330 330 330 331 329 325 324 323 323 312 297 271 276 232 223 252 252 224 221 211 205 206 206 212 219 224 233 238 239 241 238 234 217 252 251 169 192
324 326 328 329 329 328 327 326 326 327 328 329 330 333 334 330 328 329 343 327 305 250 224 226 211 217 85 216 191 202 201 204 201 210 215 206 221 226 233 231 250 271 303 268 250 180 178
327 329 329 330 330 329 328 327 327 326 325 325 327 331 336 335 333 344 351 332 18 320 293 254 251 244 249 220 209 214 197 201 200 210 213 227 225 239 242 249 245 258 279 283 294 192 165
316 321 324 326 327 326 325 324 324 325 325 325 325 328 334 341 348 13 323 308 331 328 275 274 234 229 226 217 224 208 202 205 207 216 215 227 227 217 246 250 237 267 266 261 275 281 172
306 309 315 320 320 320 320 320 321 322 322 323 325 326 333 348 354 310 351 336 325 324 279 251 203 220 215 210 229 222 206 208 222 221 226 232 242 259 210 243 233 241 245 256 268 264 265
297 302 308 313 315 316 315 315 316 317 317 318 320 321 329 332 316 282 321 323 312 304 281 102 175 192 202 201 197 208 209 209 223 220 221 230 232 239 209 248 228 256 260 284 232 262 271
294 295 302 309 311 312 311 312 311 311 311 313 313 314 311 315 313 299 308 307 308 235 237 166 154 199 203 198 220 215 207 208 226 239 239 244 245 223 246 218 242 249 242 264 286 255 251
289 290 297 302 304 306 307 308 309 311 309 308 304 304 297 292 200 242 308 304 238 235 239 191 189 205 215 200 212 237 193 202 213 220 235 234 240 248 215 239 228 227 224 241 233 233 242
292 292 295 299 303 305 306 307 309 309 309 308 301 298 289 277 260 297 293 243 241 261 233 306 257 223 208 214 207 224 199 215 210 225 228 229 226 234 181 226 232 211 225 238 235 223 253
291 292 291 293 296 301 304 305 309 312 315 315 309 303 277 270 260 229 230 224 229 232 287 303 242 248 230 221 213 216 219 210 219 219 227 238 232 224 223 201 235 197 218 245 267 286 288
305 302 307 300 296 302 307 307 309 310 321 323 322 319 279 218 208 205 226 235 248 248 283 302 280 274 243 229 220 211 222 217 228 219 223 246 264 248 221 203 220 250 214 221 238 259 275
293 302 312 315 308 302 304 307 308 308 324 326 328 287 173 160 183 214 234 237 246 259 274 276 255 270 275 282 231 226 227 225 211 225 219 230 253 259 218 197 211 216 243 254 237 236 237
286 286 298 306 302 301 307 311 317 321 325 351 289 258 162 187 219 234 240 250 257 269 270 254 268 254 277 289 291 267 223 238 223 210 227 212 237 238 257 213 212 236 218 232 242 239 260
279 277 286 296 295 295 300 304 316 330 346 340 267 257 247 200 246 248 256 258 249 254 253 263 246 243 261 273 281 280 278 232 237 207 217 207 219 229 256 261 213 219 245 223 232 267 270
266 270 280 289 286 287 292 289 305 318 337 338 287 272 221 214 249 268 280 281 273 254 245 255 257 251 239 254 259 268 273 270 253 202 223 240 209 217 238 243 209 213 229 239 220 212 230
264 269 274 281 270 269 284 284 298 314 326 341 241 253 278 279 224 244 254 262 273 267 258 244 250 250 245 242 253 249 250 261 253 163 179 180 225 214 226 255 268 208 222 229 235 235 248
271 273 275 264 260 266 271 266 279 295 295 273 288 332 308 294 287 281 275 271 267 262 271 251 245 245 252 247 236 248 242 249 270 182 195 214 227 227 236 236 248 260 235 212 222 230 222
264 260 267 263 258 265 265 261 266 265 256 250 279 289 276 274 273 271 263 264 279 313 270 273 276 228 245 247 244 252 257 274 302 181 245 204 200 212 233 237 252 249 248 243 220 224 221
254 257 265 264 251 258 263 256 255 256 236 260 291 311 277 276 266 264 280 282 312 299 290 293 280 298 234 248 244 241 254 264 269 231 233 208 204 209 225 224 236 244 240 231 250 243 222
255 261 257 271 253 250 254 247 254 247 237 246 260 265 282 278 275 281 280 280 294 307 303 291 285 260 218 265 236 232 241 240 244 257 214 201 215 212 226 233 241 237 247 287 233 233 163
248 255 257 261 255 251 247 240 249 241 240 240 252 254 260 276 266 266 317 279 296 344 312 300 252 282 299 240 218 220 220 219 227 239 203 229 341 208 209 238 238 182 348 330 257 212 149
249 247 256 255 254 258 240 237 235 241 241 245 257 246 246 261 264 278 272 312 296 295 290 283 334 268 265 224 232 212 229 222 224 223 179 176 228 247 219 229 232 92 9 18 236 207 44
248 250 252 253 252 258 247 237 243 245 249 252 256 260 248 266 270 273 273 278 286 283 300 313 319 212 235 219 226 234 227 219 236 230 210 173 36 226 222 213 213 173 120 155 219 95 95
254 251 250 251 255 247 252 251 244 245 247 253 258 267 264 251 265 286 275 264 261 268 302 310 293 296 325 302 233 286 268 243 242 218 222 180 166 233 289 244 145 174 169 123 146 139 139